#timestamp,LO_Frequency,Hit,StdDev 
1583946015.8,286046999.0,N
1583946035.7,286046995.3,Y
1583946055.5,286046996.7,P
1583946075.4,286046997.3,N
1583946095.2,286046999.1,N
1583946115.0,286047002.1,N
1583946115.9,286047002.1,N
1583946135.8,286047004.4,N
1583946155.6,286047000.9,N
1583946175.4,286046999.1,N
1583946195.3,286046995.0,N
1583946215.1,286046997.3,N
1583946235.9,286046998.8,N
1583946255.7,286046999.3,N
1583946275.6,286047002.8,N
1583946295.4,286047002.4,N
1583946315.2,286047002.5,N
1583946335.1,286047000.1,N
1583946336.0,286047000.1,N
1583946355.8,286047001.1,N
1583946375.7,286047001.6,N
1583946395.5,286047000.5,N
1583946415.3,286047002.4,N
1583946435.2,286047000.3,N
1583946455.0,286047002.3,N
1583946455.9,286047002.3,N
1583946475.7,286046999.8,N
1583946495.6,286047000.4,N
1583946515.4,286046999.9,N
1583946535.3,286047000.3,N
1583946555.1,286046998.4,N
1583946575.8,286046998.9,N
1583946595.7,286046999.6,N
1583946615.5,286046998.5,N
1583946635.4,286046996.8,N
1583946655.2,286046997.7,N
1583946675.0,286046995.3,N
1583946675.9,286046995.3,N
1583946695.8,286046995.7,N
1583946715.6,286046997.2,N
1583946735.4,286046997.0,N
1583946755.3,286046997.1,N
1583946775.1,286046997.8,N
1583946795.9,286046995.0,N
1583946815.7,286046997.8,N
1583946835.5,286046995.2,N
1583946855.4,286046996.1,N
1583946875.2,286046996.1,N
1583946895.1,286046995.9,N
1583946896.0,286046995.9,N
1583946915.8,286046997.6,N
1583946935.6,286046995.0,N
1583946955.5,286046996.3,N
1583946975.3,286046994.0,N
1583946995.2,286046993.8,N
1583947015.9,286046994.5,N
1583947035.7,286046993.5,Y
1583947055.6,286046997.7,P
1583947075.4,286046997.6,P
1583947095.2,286046997.9,P
1583947115.1,286046997.2,Y
1583947116.0,286046997.2,P
1583947135.8,286047000.3,N
1583947155.7,286047002.3,N
1583947175.5,286047001.5,N
1583947195.3,286047000.4,N
1583947215.2,286046998.4,N
1583947235.0,286046998.9,N
1583947235.9,286046998.9,N
1583947255.8,286046998.3,N
1583947275.6,286046999.3,N
1583947295.4,286046998.2,N
1583947315.3,286046999.4,N
1583947335.1,286046999.0,N
1583947355.8,286046999.1,N
1583947375.7,286046998.9,N
1583947395.5,286046999.0,N
1583947415.4,286046997.1,N
1583947435.2,286046996.9,N
1583947455.0,286046995.0,Y
1583947455.9,286046995.0,P
1583947475.8,286046999.4,N
1583947495.6,286047002.6,N
1583947515.5,286046998.4,N
1583947535.3,286046997.8,N
1583947555.1,286046997.6,N
1583947575.9,286046997.6,N
1583947595.7,286046997.4,N
1583947615.6,286046995.5,N
1583947635.4,286046996.4,N
1583947655.2,286046995.9,N
1583947675.1,286046996.3,N
1583947676.0,286046996.3,N
1583947695.8,286046995.5,N
1583947715.6,286046996.2,N
1583947735.5,286046993.4,Y
1583947755.3,286046997.6,P
1583947775.2,286046995.1,P
1583947795.9,286046995.1,P
1583947815.7,286046997.1,N
1583947835.6,286046997.6,N
1583947855.4,286046996.0,Y
1583947875.3,286047001.1,P
1583947895.1,286047000.7,N
1583947896.0,286047000.7,N
1583947915.8,286047001.1,N
1583947935.7,286047000.1,N
1583947955.5,286047000.5,N
1583947975.3,286047000.9,N
1583947995.2,286046998.5,N
1583948015.0,286046998.8,N
1583948015.9,286046998.8,N
1583948035.8,286047000.6,N
1583948055.6,286047001.0,N
1583948075.4,286047000.7,N
1583948095.3,286046999.8,N
1583948115.1,286047001.7,N
1583948135.9,286047000.0,N
1583948155.7,286047000.4,N
1583948175.5,286046998.4,N
1583948195.4,286046998.4,N
1583948215.2,286046998.6,N
1583948235.0,286046999.8,N
1583948236.0,286046999.8,N
1583948255.8,286047000.1,N
1583948275.6,286047000.6,N
1583948295.5,286047000.6,N
1583948315.3,286047000.4,N
1583948335.1,286047002.2,N
1583948355.9,286047002.5,N
1583948375.7,286047003.4,N
1583948395.6,286047003.1,N
1583948415.4,286047003.8,N
1583948435.2,286046999.9,N
1583948455.1,286047003.8,N
1583948456.0,286047003.8,N
1583948475.8,286047005.4,Y
1583948495.7,286047001.4,P
1583948515.5,286047000.1,N
1583948535.3,286047000.1,N
1583948555.2,286047001.0,N
1583948575.0,286047000.5,N
1583948575.9,286047000.5,N
1583948595.8,286047001.8,Y
1583948615.6,286047002.3,P
1583948635.4,286047004.2,P
1583948655.3,286047001.9,N
1583948675.1,286047003.6,N
1583948695.8,286047004.8,Y
1583948715.7,286047004.4,P
1583948735.5,286047000.0,N
1583948755.4,286047000.8,N
1583948775.2,286047000.8,N
1583948795.0,286047001.2,N
1583948795.9,286047001.2,N
1583948815.8,286047000.3,N
1583948835.6,286047002.4,N
1583948855.5,286047001.9,N
1583948875.3,286047001.7,N
1583948895.1,286046999.8,N
1583948915.9,286047000.7,N
1583948935.7,286047002.8,N
1583948955.5,286047001.5,N
1583948975.4,286047002.1,N
1583948995.2,286047002.9,N
1583949015.1,286047007.2,Y
1583949016.0,286047007.2,P
1583949035.8,286047002.0,N
1583949055.6,286047001.6,N
1583949075.5,286047002.3,N
1583949095.3,286047002.4,N
1583949115.2,286047002.2,N
1583949135.0,286047000.4,N
1583949135.9,286047000.4,N
1583949155.7,286047002.2,N
1583949175.6,286047002.4,N
1583949195.4,286047001.9,N
1583949215.3,286047003.3,N
1583949235.1,286047003.7,N
1583949255.8,286047003.0,N
1583949275.7,286047001.7,N
1583949295.5,286047001.6,N
1583949315.4,286047002.0,N
1583949335.2,286047000.9,N
1583949355.0,286047002.2,N
1583949355.9,286047002.2,N
1583949375.8,286047000.1,N
1583949395.6,286046999.8,N
1583949415.5,286047000.5,N
1583949435.3,286047000.9,N
1583949455.1,286047002.3,N
1583949475.9,286047004.4,Y
1583949495.7,286047000.0,P
1583949515.6,286047000.2,N
1583949535.4,286047000.9,N
1583949555.2,286047000.7,N
1583949575.1,286046996.6,Y
1583949576.0,286046996.6,P
1583949595.8,286046996.7,N
